QPF
0.00 0.00 0.00 0.00 0.00 0.00 0.00 0.00 0.00 0.00 0.00 0.00 0.00 0.00 0.00 0.00 0.00 0.00 0.00 0.00 0.00 0.00 0.00 0.00 0.00 0.00 0.00 0.00 0.00 0.00 0.00 0.00 0.00 0.00 0.00 0.00 0.00 0.00 0.00 0.00 0.00 0.00 0.00 0.00
0.00 0.00 0.00 0.00 0.00 0.00 0.00 0.00 0.00 0.00 0.00 0.00 0.00 0.00 0.00 0.00 0.00 0.00 0.00 0.00 0.00 0.00 0.00 0.00 0.00 0.00 0.00 0.00 0.00 0.00 0.00 0.00 0.00 0.00 0.00 0.00 0.00 0.00 0.00 0.00 0.00 0.00 0.00 0.00
0.00 0.00 0.00 0.00 0.00 0.00 0.00 0.00 0.00 0.00 0.00 0.00 0.00 0.00 0.00 0.00 0.00 0.00 0.00 0.00 0.00 0.00 0.00 0.00 0.00 0.00 0.00 0.00 0.00 0.00 0.00 0.00 0.00 0.00 0.00 0.00 0.00 0.00 0.00 0.00 0.00 0.00 0.00 0.00
0.00 0.00 0.00 0.00 0.00 0.00 0.00 0.00 0.00 0.00 0.00 0.00 0.00 0.00 0.00 0.00 0.00 0.00 0.00 0.00 0.00 0.00 0.00 0.00 0.00 0.00 0.00 0.00 0.00 0.00 0.00 0.00 0.00 0.00 0.00 0.00 0.00 0.00 0.00 0.00 0.00 0.00 0.00 0.00
0.00 0.00 0.00 0.00 0.00 0.00 0.00 0.00 0.00 0.00 0.00 0.00 0.00 0.00 0.00 0.00 0.00 0.00 0.00 0.00 0.00 0.00 0.00 0.00 0.00 0.00 0.00 0.00 0.00 0.00 0.00 0.00 0.00 0.00 0.00 0.00 0.00 0.00 0.00 0.00 0.00 0.00 0.00 0.00
0.00 0.00 0.00 0.00 0.00 0.00 0.00 0.00 0.00 0.00 0.00 0.00 0.00 0.00 0.00 0.00 0.00 0.00 0.00 0.00 0.00 0.00 0.00 0.00 0.00 0.00 0.00 0.00 0.00 0.00 0.00 0.00 0.00 0.00 0.00 0.00 0.00 0.00 0.00 0.00 0.00 0.00 0.00 0.00
0.00 0.00 0.00 0.00 0.00 0.00 0.00 0.00 0.00 0.00 0.00 0.00 0.00 0.00 0.00 0.00 0.00 0.00 0.00 0.00 0.00 0.00 0.00 0.00 0.00 0.00 0.00 0.00 0.00 0.00 0.00 0.00 0.00 0.00 0.00 0.00 0.00 0.00 0.00 0.00 0.00 0.00 0.00 0.00
0.00 0.00 0.00 0.00 0.00 0.00 0.00 0.00 0.00 0.00 0.00 0.00 0.00 0.00 0.00 0.00 0.00 0.00 0.00 0.00 0.00 0.00 0.00 0.00 0.00 0.00 0.00 0.00 0.00 0.00 0.00 0.00 0.00 0.00 0.00 0.00 0.00 0.00 0.00 0.00 0.00 0.00 0.00 0.00
0.00 0.00 0.00 0.00 0.00 0.00 0.00 0.00 0.00 0.00 0.00 0.00 0.00 0.00 0.00 0.00 0.00 0.00 0.00 0.00 0.00 0.00 0.00 0.00 0.00 0.00 0.00 0.00 0.00 0.00 0.00 0.00 0.00 0.00 0.00 0.00 0.00 0.00 0.00 0.00 0.00 0.00 0.00 0.00
0.00 0.00 0.00 0.00 0.00 0.00 0.00 0.00 0.00 0.00 0.00 0.00 0.00 0.00 0.00 0.00 0.00 0.00 0.00 0.00 0.00 0.00 0.00 0.00 0.00 0.00 0.00 0.00 0.00 0.00 0.00 0.00 0.00 0.00 0.00 0.00 0.00 0.00 0.00 0.00 0.00 0.00 0.00 0.00
0.00 0.00 0.00 0.00 0.00 0.00 0.00 0.00 0.00 0.00 0.00 0.00 0.00 0.00 0.00 0.00 0.00 0.00 0.00 0.00 0.00 0.00 0.00 0.00 0.00 0.00 0.00 0.00 0.00 0.00 0.00 0.00 0.00 0.00 0.00 0.00 0.00 0.00 0.00 0.00 0.00 0.00 0.00 0.00
0.00 0.00 0.00 0.00 0.00 0.00 0.00 0.00 0.00 0.00 0.00 0.00 0.00 0.00 0.00 0.00 0.00 0.00 0.00 0.00 0.00 0.00 0.00 0.00 0.00 0.00 0.00 0.00 0.00 0.00 0.00 0.00 0.00 0.00 0.00 0.00 0.00 0.00 0.00 0.00 0.00 0.00 0.00 0.00
0.01 0.00 0.00 0.00 0.00 0.00 0.00 0.00 0.00 0.00 0.00 0.00 0.00 0.00 0.00 0.00 0.00 0.00 0.00 0.00 0.00 0.00 0.00 0.00 0.00 0.00 0.00 0.00 0.00 0.00 0.00 0.00 0.00 0.00 0.00 0.00 0.00 0.00 0.00 0.00 0.00 0.00 0.00 0.00
0.02 0.00 0.00 0.00 0.00 0.00 0.00 0.00 0.00 0.00 0.00 0.00 0.00 0.00 0.00 0.00 0.00 0.00 0.00 0.00 0.00 0.00 0.00 0.00 0.00 0.00 0.01 0.00 0.00 0.00 0.00 0.00 0.00 0.00 0.00 0.00 0.00 0.00 0.00 0.00 0.00 0.00 0.00 0.00
0.00 0.00 0.00 0.00 0.00 0.00 0.00 0.00 0.00 0.00 0.00 0.00 0.00 0.00 0.00 0.00 0.00 0.00 0.00 0.00 0.00 0.00 0.00 0.00 0.00 0.01 0.02 0.02 0.02 0.00 0.00 0.00 0.01 0.00 0.00 0.00 0.00 0.00 0.00 0.00 0.00 0.00 0.00 0.00
0.00 0.00 0.00 0.00 0.00 0.00 0.00 0.00 0.00 0.00 0.00 0.00 0.00 0.00 0.00 0.00 0.00 0.00 0.00 0.00 0.00 0.00 0.00 0.00 0.00 0.02 0.07 0.07 0.04 0.01 0.00 0.01 0.02 0.01 0.00 0.00 0.00 0.00 0.00 0.00 0.00 0.00 0.00 0.00
0.00 0.00 0.00 0.00 0.00 0.00 0.00 0.00 0.00 0.00 0.00 0.00 0.00 0.00 0.00 0.00 0.00 0.00 0.00 0.00 0.00 0.00 0.00 0.00 0.00 0.02 0.06 0.07 0.08 0.05 0.01 0.02 0.04 0.05 0.00 0.01 0.01 0.01 0.01 0.01 0.01 0.00 0.01 0.02
0.00 0.00 0.00 0.00 0.00 0.00 0.00 0.00 0.00 0.00 0.00 0.00 0.00 0.00 0.00 0.00 0.00 0.00 0.00 0.00 0.00 0.00 0.00 0.00 0.00 0.00 0.03 0.06 0.08 0.06 0.02 0.01 0.02 0.07 0.01 0.00 0.02 0.03 0.06 0.06 0.06 0.04 0.05 0.08
0.00 0.00 0.00 0.00 0.00 0.00 0.00 0.00 0.00 0.00 0.00 0.00 0.00 0.00 0.00 0.00 0.00 0.00 0.00 0.00 0.00 0.00 0.00 0.00 0.00 0.00 0.01 0.06 0.09 0.07 0.01 0.00 0.01 0.02 0.00 0.00 0.03 0.04 0.05 0.07 0.09 0.09 0.12 0.09
0.00 0.00 0.00 0.00 0.00 0.00 0.00 0.00 0.00 0.00 0.00 0.00 0.00 0.00 0.00 0.00 0.00 0.00 0.00 0.00 0.00 0.00 0.00 0.00 0.00 0.00 0.01 0.02 0.03 0.03 0.01 0.00 0.02 0.05 0.02 0.04 0.08 0.09 0.07 0.09 0.11 0.09 0.08 0.03
0.00 0.00 0.00 0.00 0.00 0.00 0.00 0.00 0.00 0.00 0.00 0.00 0.00 0.00 0.00 0.00 0.00 0.00 0.00 0.00 0.00 0.00 0.00 0.00 0.00 0.00 0.00 0.01 0.01 0.00 0.00 0.02 0.04 0.14 0.17 0.24 0.23 0.24 0.13 0.08 0.10 0.06 0.01 0.00
0.00 0.00 0.00 0.00 0.00 0.00 0.00 0.00 0.00 0.00 0.00 0.01 0.00 0.00 0.00 0.00 0.00 0.00 0.00 0.00 0.00 0.00 0.00 0.00 0.00 0.00 0.02 0.02 0.00 0.00 0.01 0.07 0.08 0.10 0.16 0.28 0.28 0.21 0.13 0.07 0.05 0.03 0.01 0.00
0.00 0.00 0.00 0.00 0.00 0.00 0.00 0.00 0.00 0.00 0.01 0.00 0.00 0.00 0.00 0.00 0.00 0.00 0.00 0.00 0.00 0.00 0.00 0.00 0.00 0.00 0.00 0.01 0.01 0.00 0.01 0.04 0.05 0.08 0.17 0.20 0.14 0.08 0.05 0.00 0.00 0.00 0.00 0.00
0.00 0.00 0.00 0.00 0.00 0.00 0.00 0.00 0.00 0.00 0.00 0.00 0.00 0.00 0.00 0.00 0.00 0.00 0.00 0.00 0.00 0.00 0.00 0.00 0.01 0.00 0.00 0.01 0.01 0.00 0.00 0.02 0.09 0.09 0.11 0.11 0.03 0.02 0.00 0.00 0.00 0.00 0.00 0.00
0.00 0.00 0.00 0.00 0.00 0.00 0.00 0.00 0.01 0.00 0.00 0.00 0.00 0.00 0.00 0.00 0.00 0.00 0.00 0.00 0.00 0.00 0.00 0.00 0.00 0.01 0.02 0.02 0.01 0.00 0.02 0.06 0.04 0.04 0.04 0.03 0.01 0.00 0.00 0.00 0.00 0.00 0.00 0.00
0.00 0.00 0.00 0.00 0.00 0.00 0.01 0.01 0.00 0.00 0.00 0.00 0.00 0.00 0.00 0.00 0.00 0.00 0.00 0.00 0.00 0.00 0.00 0.00 0.00 0.02 0.05 0.06 0.05 0.01 0.02 0.03 0.03 0.02 0.01 0.00 0.00 0.00 0.00 0.00 0.00 0.00 0.00 0.00
MSLP
1010.14 1010.63 1011.18 1011.07 1011.18 1011.29 1011.45 1011.56 1011.30 1010.73 1010.31 1010.13 1009.64 1008.90 1008.58 1007.91 1007.41 1006.90 1006.60 1006.35 1005.85 1005.80 1005.50 1005.34 1005.18 1004.46 1004.00 1003.51 1002.97 1002.65 1003.15 1003.39 1003.81 1003.80 1004.35 1004.73 1004.95 1005.23 1005.19 1005.50 1005.39 1005.99 1006.15 1006.22
1010.73 1010.74 1010.54 1010.48 1010.61 1010.94 1011.25 1011.41 1011.51 1011.31 1010.99 1011.12 1010.39 1008.97 1008.18 1007.79 1007.11 1006.73 1006.49 1006.32 1005.92 1005.81 1005.65 1005.51 1005.14 1005.03 1004.69 1004.34 1003.77 1003.12 1002.91 1002.80 1003.14 1003.34 1003.09 1003.24 1003.90 1004.15 1004.31 1004.60 1005.00 1005.37 1005.53 1005.84
1010.64 1010.36 1010.15 1010.24 1010.48 1010.83 1011.16 1011.49 1011.68 1011.85 1011.57 1011.31 1010.86 1009.37 1008.58 1007.82 1007.15 1007.02 1006.82 1006.38 1006.13 1006.04 1005.87 1005.88 1005.62 1005.04 1004.79 1004.91 1004.42 1003.51 1003.20 1002.64 1002.59 1002.62 1002.88 1003.12 1003.31 1003.48 1003.98 1004.32 1004.19 1004.22 1004.43 1004.98
1010.28 1009.96 1010.02 1010.19 1010.37 1010.70 1011.16 1011.40 1011.88 1012.28 1012.67 1012.93 1012.02 1010.77 1009.22 1008.46 1007.94 1007.40 1007.16 1006.96 1006.42 1006.24 1005.82 1005.52 1005.58 1005.46 1004.85 1004.61 1004.45 1003.80 1003.31 1002.50 1002.29 1002.05 1002.29 1002.33 1002.24 1002.28 1002.13 1002.64 1002.77 1002.99 1003.62 1004.06
1010.04 1009.86 1009.83 1009.94 1010.13 1010.51 1011.11 1011.53 1012.24 1012.75 1013.30 1013.65 1013.10 1012.72 1009.52 1008.38 1007.89 1007.47 1007.21 1006.89 1006.50 1006.16 1005.90 1005.61 1005.37 1005.15 1004.78 1004.36 1003.96 1003.48 1003.13 1002.29 1001.98 1001.54 1001.50 1001.59 1001.46 1001.27 1001.24 1001.51 1002.11 1002.40 1002.88 1003.44
1009.94 1009.70 1009.60 1009.58 1010.11 1010.68 1011.42 1012.14 1013.03 1013.72 1014.26 1014.40 1013.45 1012.90 1010.56 1009.20 1008.02 1007.52 1007.05 1006.53 1006.38 1006.18 1005.90 1005.62 1005.17 1004.78 1004.48 1003.84 1003.48 1002.94 1002.48 1001.95 1001.54 1001.10 1000.79 1000.57 1000.63 1000.54 1001.14 1001.16 1001.46 1001.81 1002.67 1002.99
1010.03 1009.92 1009.72 1009.66 1010.34 1011.17 1011.97 1013.30 1014.57 1015.07 1015.26 1014.89 1013.72 1012.79 1009.61 1008.45 1007.78 1007.38 1007.17 1006.55 1005.95 1005.93 1006.03 1005.80 1005.31 1004.68 1004.09 1003.66 1003.05 1002.52 1002.03 1001.34 1000.73 1000.57 1000.01 999.74 999.74 999.86 1000.22 1000.07 1000.61 1001.11 1001.78 1002.15
1010.52 1010.48 1009.95 1009.93 1010.40 1011.40 1012.50 1013.79 1015.40 1015.95 1016.12 1015.43 1014.24 1012.19 1008.86 1007.57 1007.14 1006.67 1006.66 1006.33 1006.05 1005.80 1005.61 1005.65 1005.16 1004.70 1003.89 1003.21 1002.81 1002.26 1001.76 1000.94 1000.17 999.75 999.23 998.98 999.09 999.29 999.42 999.62 1000.01 1000.16 1000.74 1000.77
1010.85 1010.74 1010.21 1010.11 1010.44 1011.29 1012.84 1014.03 1014.78 1015.89 1016.36 1016.03 1013.98 1011.20 1008.32 1007.16 1007.02 1006.74 1006.51 1006.61 1006.64 1006.00 1005.47 1005.03 1004.41 1004.05 1003.43 1002.80 1002.24 1001.89 1001.37 1000.33 999.72 999.11 998.72 998.32 998.44 998.66 998.51 998.69 999.13 999.56 1000.07 1000.51
1011.30 1011.48 1010.86 1010.68 1010.92 1011.50 1012.27 1013.40 1015.15 1016.57 1016.99 1016.10 1013.36 1011.26 1009.11 1007.73 1007.15 1006.92 1007.09 1006.95 1006.27 1005.78 1005.36 1004.66 1004.12 1003.63 1002.87 1002.37 1001.80 1001.11 1000.67 999.75 998.83 998.27 997.85 997.51 997.27 997.63 997.91 998.25 998.74 999.09 999.69 1000.09
1011.68 1012.20 1012.02 1011.73 1011.50 1011.81 1012.86 1013.67 1014.98 1016.02 1016.37 1015.93 1014.00 1009.96 1007.89 1007.59 1007.18 1007.10 1007.02 1006.86 1006.38 1005.54 1005.09 1004.53 1003.79 1003.39 1002.85 1001.87 1001.20 1000.26 999.68 999.00 998.16 997.37 996.89 996.64 996.55 996.82 997.21 997.70 998.12 998.48 999.12 999.81
1012.13 1012.57 1012.77 1012.07 1011.53 1011.95 1012.43 1013.36 1014.49 1015.48 1015.72 1015.29 1014.22 1008.91 1007.46 1007.05 1006.95 1007.19 1006.61 1006.59 1006.23 1005.64 1004.88 1004.17 1003.53 1003.12 1002.46 1001.50 1000.58 999.87 999.01 998.26 997.39 996.46 996.11 995.96 996.08 996.47 996.89 997.33 997.58 998.18 998.73 999.52
1012.38 1012.98 1013.20 1012.49 1012.42 1012.33 1012.54 1013.20 1013.75 1014.24 1014.47 1013.73 1013.02 1008.45 1006.73 1006.53 1006.82 1006.75 1006.72 1006.52 1006.24 1005.59 1004.62 1003.80 1003.21 1002.75 1001.97 1001.17 1000.52 999.63 998.67 997.75 996.74 995.73 995.22 995.20 995.34 995.78 996.19 996.57 997.26 997.82 998.48 999.20
1012.54 1012.86 1013.23 1013.02 1012.36 1012.44 1012.68 1012.70 1013.01 1013.35 1013.13 1011.53 1010.66 1007.75 1007.29 1007.06 1006.77 1006.59 1006.47 1006.36 1006.08 1005.37 1004.41 1003.68 1003.16 1002.37 1001.70 1000.58 1000.42 999.69 998.54 997.65 996.29 994.77 994.24 994.42 994.59 994.81 995.25 996.00 996.65 997.27 998.04 998.79
1012.52 1012.79 1013.04 1012.62 1012.34 1012.29 1012.17 1011.86 1011.63 1011.85 1011.03 1010.85 1008.40 1008.36 1006.41 1006.64 1006.57 1006.40 1006.33 1006.02 1005.58 1004.86 1004.13 1003.40 1002.93 1002.30 1001.41 999.99 999.85 999.32 998.32 997.25 996.00 994.08 993.73 993.80 993.88 994.28 994.90 995.78 996.46 997.27 997.87 998.47
1013.01 1013.05 1013.06 1012.73 1012.33 1011.84 1011.12 1010.31 1010.03 1009.72 1009.38 1008.96 1008.03 1006.92 1005.81 1005.66 1006.08 1006.18 1005.99 1005.57 1004.73 1003.97 1003.52 1003.02 1002.53 1001.84 1001.00 999.85 999.83 999.09 998.10 997.03 996.03 994.05 993.49 993.63 993.46 994.05 994.70 995.75 996.51 997.23 997.78 998.52
1013.32 1013.50 1013.65 1012.47 1011.90 1011.43 1010.11 1008.16 1008.04 1007.71 1007.23 1007.16 1006.86 1005.56 1005.60 1005.69 1005.76 1005.63 1005.27 1004.78 1004.15 1003.74 1003.13 1002.52 1002.10 1001.57 1000.68 1000.00 999.40 998.74 997.97 996.66 995.41 993.75 993.12 993.28 993.15 993.74 994.79 995.71 996.40 997.09 997.89 998.75
1013.01 1013.57 1013.57 1012.57 1011.96 1010.66 1007.82 1007.14 1006.90 1006.85 1006.45 1006.26 1005.87 1005.61 1005.58 1005.52 1005.27 1004.96 1004.70 1004.18 1003.53 1003.07 1002.56 1001.97 1001.46 1000.74 1000.04 999.65 999.40 998.74 997.25 995.67 994.72 993.28 992.84 992.90 993.18 993.72 994.83 995.69 996.45 997.33 997.95 998.89
1012.37 1013.06 1012.94 1012.32 1011.67 1009.67 1007.82 1007.17 1007.21 1007.15 1006.23 1005.74 1005.75 1005.88 1005.72 1005.18 1004.70 1004.02 1003.74 1003.14 1002.80 1002.34 1001.68 1001.18 1000.49 1000.09 999.60 998.83 998.00 997.60 996.31 995.01 993.86 992.95 992.58 992.84 993.08 993.79 994.70 995.76 996.67 997.29 998.12 999.34
1011.66 1012.61 1012.85 1012.08 1011.71 1010.10 1008.01 1007.44 1007.23 1007.39 1006.84 1006.21 1006.32 1006.35 1006.30 1005.61 1004.40 1002.82 1003.21 1002.80 1002.00 1001.43 1000.97 1000.29 999.65 998.87 998.22 997.34 997.28 996.71 995.32 994.34 993.21 992.59 992.17 992.59 993.05 993.73 994.73 995.72 996.78 997.57 998.60 999.82
1012.50 1012.60 1012.32 1011.94 1011.37 1009.44 1007.65 1007.55 1007.46 1007.64 1007.39 1006.75 1006.47 1006.07 1006.02 1005.71 1005.01 1002.96 1002.69 1001.65 1001.21 1000.22 999.73 999.36 998.71 997.95 997.10 996.42 996.10 995.43 994.34 993.40 992.70 991.75 992.21 992.72 993.37 994.03 994.45 995.92 996.89 997.93 999.32 1000.32
1012.36 1012.27 1011.95 1011.55 1010.79 1009.29 1007.69 1007.94 1007.77 1006.89 1006.27 1006.06 1005.96 1005.86 1005.31 1004.70 1003.70 1002.87 1001.67 1000.89 1000.07 999.27 998.73 998.17 997.59 996.87 996.13 995.31 994.76 994.04 993.34 992.85 992.41 991.55 991.97 992.91 993.92 994.12 995.21 995.84 997.67 998.85 999.84 1000.69
1011.99 1011.65 1011.70 1011.34 1009.43 1008.03 1007.59 1007.41 1006.84 1006.54 1006.05 1005.92 1005.47 1005.14 1004.83 1003.56 1002.58 1001.79 1000.76 999.90 998.96 998.05 997.31 996.82 996.48 995.54 994.64 993.88 993.46 992.73 992.45 992.47 992.14 991.57 992.22 993.03 993.84 994.74 995.83 996.67 998.07 999.29 1000.03 1001.05
1011.37 1010.97 1010.95 1010.55 1008.37 1007.53 1007.07 1006.62 1006.27 1005.80 1005.58 1005.33 1004.99 1004.32 1003.80 1002.62 1001.66 1000.80 999.98 998.92 997.95 997.10 996.40 995.87 995.30 994.39 993.52 992.65 992.33 991.57 991.80 992.00 992.02 992.32 993.14 993.17 994.15 995.50 996.59 997.47 998.48 999.57 1000.53 1001.36
1011.14 1010.69 1009.92 1009.20 1007.88 1007.28 1006.50 1006.20 1005.77 1005.41 1005.14 1004.50 1003.85 1003.60 1002.88 1002.06 1000.94 1000.12 999.16 998.04 997.09 996.16 995.19 994.79 994.08 993.28 992.41 992.06 991.51 991.36 991.57 991.55 991.84 991.60 993.02 994.08 995.05 995.97 997.46 998.69 999.71 1000.11 1000.61 1000.82
1010.32 1009.96 1009.51 1008.36 1007.70 1007.33 1006.21 1005.62 1005.01 1004.89 1004.40 1003.84 1002.98 1002.23 1002.02 1001.35 1000.25 999.46 998.34 997.31 996.37 995.28 994.12 993.38 992.73 991.96 990.82 990.78 990.47 990.46 991.38 991.29 991.43 992.24 993.67 994.51 995.52 996.73 997.74 998.77 1000.09 1000.81 1001.08 1001.34
Thickness
5593 5584 5580 5588 5588 5594 5593 5589 5592 5605 5614 5612 5619 5627 5635 5650 5655 5662 5671 5679 5686 5692 5704 5709 5716 5728 5738 5748 5757 5765 5765 5767 5767 5771 5770 5769 5772 5776 5782 5782 5784 5780 5779 5780
5577 5576 5587 5592 5590 5587 5584 5586 5584 5590 5600 5599 5606 5624 5635 5639 5651 5657 5664 5669 5679 5685 5689 5695 5702 5710 5718 5729 5738 5750 5756 5762 5762 5764 5772 5774 5773 5773 5780 5781 5780 5781 5779 5777
5569 5580 5588 5588 5583 5581 5579 5576 5578 5578 5587 5590 5594 5608 5623 5634 5643 5646 5648 5657 5664 5670 5676 5679 5686 5696 5704 5709 5718 5733 5741 5750 5754 5758 5761 5763 5766 5768 5769 5771 5778 5782 5781 5775
5571 5580 5580 5576 5578 5575 5571 5576 5575 5573 5566 5559 5585 5572 5612 5618 5621 5628 5631 5637 5648 5656 5665 5673 5676 5681 5691 5699 5707 5717 5727 5739 5745 5751 5751 5757 5763 5768 5779 5779 5782 5784 5778 5774
5568 5572 5573 5572 5573 5573 5567 5572 5567 5566 5558 5555 5560 5547 5585 5610 5614 5613 5618 5625 5634 5644 5651 5659 5667 5672 5681 5688 5695 5705 5713 5728 5734 5743 5749 5751 5758 5768 5777 5777 5778 5777 5775 5768
5563 5572 5571 5570 5569 5568 5561 5558 5547 5534 5532 5530 5550 5553 5567 5589 5600 5603 5610 5619 5622 5626 5634 5641 5650 5659 5668 5679 5686 5695 5704 5715 5723 5732 5743 5748 5752 5760 5759 5767 5771 5772 5764 5760
5560 5557 5563 5566 5556 5552 5544 5527 5510 5516 5520 5531 5547 5549 5578 5584 5588 5589 5592 5603 5614 5615 5615 5619 5629 5643 5655 5666 5677 5685 5695 5709 5718 5726 5736 5744 5751 5755 5756 5768 5767 5762 5758 5757
5532 5534 5552 5558 5551 5541 5538 5526 5493 5504 5512 5513 5539 5541 5570 5583 5579 5582 5581 5585 5594 5601 5604 5604 5612 5623 5640 5654 5662 5673 5683 5700 5710 5720 5733 5740 5746 5751 5755 5763 5761 5760 5755 5759
5528 5532 5547 5550 5548 5540 5527 5517 5520 5508 5488 5471 5512 5542 5575 5581 5570 5565 5565 5568 5568 5577 5585 5592 5603 5613 5627 5639 5649 5660 5673 5692 5704 5714 5724 5735 5740 5744 5752 5760 5756 5753 5751 5751
5522 5515 5533 5537 5537 5533 5523 5521 5498 5469 5486 5497 5518 5529 5546 5560 5561 5552 5548 5545 5557 5562 5563 5576 5591 5601 5613 5623 5636 5652 5664 5683 5700 5711 5722 5732 5741 5744 5748 5750 5747 5747 5746 5745
5515 5508 5515 5521 5522 5516 5510 5504 5491 5476 5461 5462 5468 5535 5547 5549 5545 5542 5539 5542 5548 5555 5557 5563 5576 5584 5595 5609 5624 5642 5657 5674 5692 5706 5720 5729 5737 5741 5742 5743 5743 5742 5742 5739
5503 5490 5493 5512 5520 5518 5511 5502 5489 5456 5469 5485 5475 5533 5554 5547 5537 5530 5536 5539 5541 5544 5550 5558 5563 5571 5580 5595 5611 5628 5646 5664 5684 5702 5712 5722 5728 5732 5734 5735 5737 5736 5734 5731
5493 5481 5480 5503 5508 5503 5509 5498 5493 5485 5473 5494 5485 5530 5544 5538 5530 5530 5524 5525 5528 5535 5542 5551 5556 5564 5573 5582 5594 5614 5634 5655 5674 5693 5707 5716 5724 5728 5731 5732 5730 5729 5727 5725
5490 5479 5488 5483 5503 5486 5497 5505 5499 5493 5490 5503 5506 5526 5531 5524 5519 5519 5515 5515 5516 5523 5535 5543 5547 5555 5560 5573 5578 5595 5618 5640 5663 5687 5703 5712 5720 5727 5728 5727 5725 5725 5723 5719
5480 5479 5477 5487 5498 5496 5496 5502 5506 5496 5505 5493 5522 5512 5528 5520 5516 5509 5509 5510 5516 5523 5529 5536 5537 5539 5548 5563 5571 5584 5603 5627 5651 5680 5696 5707 5716 5719 5720 5718 5719 5718 5717 5715
5464 5466 5470 5475 5488 5490 5495 5509 5508 5510 5510 5508 5512 5517 5528 5522 5507 5502 5504 5509 5517 5521 5524 5528 5531 5537 5544 5556 5559 5574 5588 5612 5637 5670 5685 5696 5707 5710 5712 5711 5713 5711 5711 5708
5467 5461 5464 5482 5491 5485 5495 5519 5519 5521 5526 5520 5511 5526 5521 5513 5504 5502 5503 5506 5509 5509 5517 5522 5525 5528 5534 5546 5554 5562 5576 5603 5631 5660 5676 5687 5699 5704 5704 5705 5706 5705 5703 5700
5455 5455 5460 5468 5476 5485 5523 5525 5525 5522 5526 5521 5520 5517 5512 5500 5500 5503 5502 5499 5502 5505 5510 5516 5521 5523 5531 5539 5547 5557 5576 5604 5626 5653 5669 5682 5692 5697 5696 5698 5698 5697 5696 5692
5463 5463 5469 5479 5472 5488 5520 5517 5511 5503 5519 5522 5514 5503 5496 5502 5498 5503 5503 5499 5496 5500 5508 5514 5520 5523 5532 5544 5553 5561 5581 5603 5623 5649 5666 5678 5686 5688 5690 5690 5689 5691 5688 5682
5473 5463 5468 5473 5457 5441 5506 5505 5501 5491 5499 5497 5495 5488 5481 5481 5483 5503 5491 5492 5496 5502 5507 5514 5521 5531 5539 5550 5554 5564 5584 5603 5625 5648 5666 5673 5679 5684 5685 5685 5683 5683 5679 5672
5468 5467 5470 5473 5472 5475 5500 5494 5491 5479 5486 5480 5483 5482 5469 5461 5469 5483 5483 5493 5496 5505 5512 5518 5526 5535 5544 5555 5561 5571 5591 5611 5631 5652 5657 5664 5672 5678 5683 5679 5677 5675 5668 5664
5449 5457 5457 5464 5469 5470 5492 5484 5481 5480 5487 5482 5474 5467 5461 5461 5468 5472 5487 5494 5504 5512 5519 5527 5534 5542 5551 5562 5570 5583 5599 5614 5628 5648 5657 5661 5663 5671 5671 5675 5667 5663 5659 5656
5447 5451 5439 5442 5453 5473 5483 5476 5478 5479 5474 5470 5468 5459 5455 5467 5473 5479 5489 5501 5512 5523 5532 5538 5543 5554 5565 5575 5582 5594 5606 5616 5629 5648 5655 5659 5660 5662 5663 5666 5660 5654 5653 5649
5463 5460 5454 5463 5476 5478 5481 5477 5475 5472 5468 5462 5457 5462 5463 5472 5480 5487 5497 5509 5522 5531 5539 5546 5551 5562 5573 5585 5590 5605 5614 5623 5631 5638 5644 5655 5657 5656 5656 5657 5654 5650 5645 5642
5465 5463 5459 5462 5474 5478 5481 5475 5472 5462 5458 5461 5466 5465 5469 5474 5484 5493 5504 5518 5530 5539 5548 5553 5560 5570 5581 5588 5601 5610 5617 5627 5638 5645 5644 5649 5650 5651 5644 5640 5643 5645 5642 5643
5463 5458 5461 5468 5468 5464 5470 5467 5461 5453 5459 5463 5468 5474 5475 5480 5490 5501 5513 5526 5535 5545 5557 5564 5571 5581 5596 5603 5612 5620 5620 5633 5636 5639 5645 5648 5646 5643 5641 5640 5635 5627 5631 5633